Date String (YYYY-MM-DD hh:mm:ss) UTC,Instrument flags,absolute air pressure of the measurement (hPa),sample flow rate (lpm),inlet stack bypass flow (lpm),air temperature of the measurement (°C),ambient temperature measured by the external sensor (°C),aerosol sample conditioner tube jacket temperature (°C),OPC LED temperature (°C),internal box temperature (°C),relative humidity of the measurement (%),span deviation,mass concentration of particles derived from Lorenz-Mie calculation of OPC scattering (μg/m³),mass concentration of particles derived from Lorenz-Mie calculation of OPC scattering (μg/m³),mass concentration of particles derived from Lorenz-Mie calculation of OPC scattering (μg/m³)
DateTimeUTC,F1_M11,P_M11,Q1_M11,Q2_M11,T1_M11,T2_M11,T3_M11,T4_M11,T5_M11,U1_M11,ZSPAN_M11,X0_M11,X2_M11,X1_M11
2024-04-26 04:00:00,SystemResetWarning,0818.2,5.01,000.00,025.6,024.8,000.0,034.1,027.4,018.0,0000.0,0001.27,0000.68,0000.44
2024-04-26 04:01:00,SystemResetWarning,0818.2,5.00,000.00,025.6,024.8,000.0,034.1,027.4,017.9,0000.0,0001.29,0000.70,0000.46
2024-04-26 04:02:00,SystemResetWarning,0818.2,5.00,000.00,025.7,024.9,000.0,034.1,027.5,017.9,0000.0,0001.33,0000.73,0000.48
2024-04-26 04:03:00,SystemResetWarning,0818.3,5.00,000.00,025.7,024.9,000.0,034.1,027.5,017.9,0000.0,0001.28,0000.72,0000.48
2024-04-26 04:04:00,SystemResetWarning,0818.3,5.00,000.00,025.7,024.9,000.0,034.1,027.5,017.9,0000.0,0001.23,0000.72,0000.50
2024-04-26 04:05:00,SystemResetWarning,0818.3,5.00,000.00,025.7,025.0,000.0,034.1,027.5,017.7,0000.0,0001.36,0000.78,0000.52
2024-04-26 04:06:00,SystemResetWarning,0818.3,5.01,000.00,025.7,025.0,000.0,034.1,027.6,017.6,0000.0,0001.54,0000.84,0000.53
2024-04-26 04:07:00,SystemResetWarning,0818.2,5.01,000.00,025.7,025.0,000.0,034.1,027.6,017.7,0000.0,0001.60,0000.86,0000.53
2024-04-26 04:08:00,SystemResetWarning,0818.2,5.01,000.00,025.7,025.0,000.0,034.2,027.6,017.7,0000.0,0001.46,0000.84,0000.53
2024-04-26 04:09:00,SystemResetWarning,0818.3,4.99,000.00,025.7,025.0,000.0,034.2,027.6,017.8,0000.0,0001.46,0000.84,0000.54
2024-04-26 04:10:00,SystemResetWarning,0818.3,4.99,000.00,025.7,025.1,000.0,034.2,027.6,017.7,0000.0,0001.49,0000.85,0000.54
2024-04-26 04:11:00,SystemResetWarning,0818.2,5.00,000.00,025.7,025.1,000.0,034.2,027.6,017.6,0000.0,0001.46,0000.85,0000.54
2024-04-26 04:12:00,SystemResetWarning,0818.2,5.01,000.00,025.8,025.0,000.0,034.2,027.6,017.7,0000.0,0001.39,0000.82,0000.53
2024-04-26 04:13:00,SystemResetWarning,0818.2,5.01,000.00,025.8,025.1,000.0,034.2,027.6,017.6,0000.0,0001.37,0000.80,0000.53
2024-04-26 04:14:00,SystemResetWarning,0818.2,5.00,000.00,025.8,025.0,000.0,034.2,027.6,017.2,0000.0,0001.36,0000.78,0000.53
2024-04-26 04:15:00,SystemResetWarning,0818.2,4.99,000.00,025.8,025.0,000.0,034.2,027.6,016.7,0000.0,0001.53,0000.79,0000.53
2024-04-26 04:16:00,SystemResetWarning,0818.2,5.00,000.00,025.8,025.1,000.0,034.2,027.6,016.6,0000.0,0001.57,0000.79,0000.54
2024-04-26 04:17:00,SystemResetWarning,0818.2,4.99,000.00,025.8,025.1,000.0,034.2,027.6,016.6,0000.0,0001.63,0000.81,0000.56
2024-04-26 04:18:00,SystemResetWarning,0818.3,4.99,000.00,025.8,025.0,000.0,034.2,027.6,016.5,0000.0,0001.63,0000.81,0000.58
2024-04-26 04:19:00,SystemResetWarning,0818.3,5.01,000.00,025.8,025.0,000.0,034.2,027.6,016.8,0000.0,0001.66,0000.84,0000.60
2024-04-26 04:20:00,SystemResetWarning,0818.3,5.01,000.00,025.8,025.1,000.0,034.2,027.6,016.8,0000.0,0001.69,0000.86,0000.62
2024-04-26 04:21:00,SystemResetWarning,0818.3,4.99,000.00,025.8,025.1,000.0,034.2,027.6,016.7,0000.0,0001.74,0000.88,0000.63
2024-04-26 04:22:00,SystemResetWarning,0818.3,5.00,000.00,025.8,025.1,000.0,034.3,027.6,016.7,0000.0,0001.95,0000.92,0000.65
2024-04-26 04:23:00,SystemResetWarning,0818.3,4.99,000.00,025.8,025.1,000.0,034.3,027.6,016.7,0000.0,0002.33,0000.97,0000.67
2024-04-26 04:24:00,SystemResetWarning,0818.2,5.00,000.00,025.8,025.1,000.0,034.3,027.7,016.6,0000.0,0002.41,0001.01,0000.70
2024-04-26 04:25:00,SystemResetWarning,0818.3,5.02,000.00,025.8,025.1,000.0,034.3,027.7,016.7,0000.0,0002.61,0001.12,0000.74
2024-04-26 04:26:00,SystemResetWarning,0818.3,4.99,000.00,025.9,025.2,000.0,034.3,027.7,016.8,0000.0,0002.52,0001.17,0000.77
2024-04-26 04:27:00,SystemResetWarning,0818.3,4.99,000.00,025.9,025.2,000.0,034.3,027.7,016.9,0000.0,0002.48,0001.18,0000.78
2024-04-26 04:28:00,SystemResetWarning,0818.3,5.00,000.00,025.9,025.2,000.0,034.3,027.7,016.4,0000.0,0002.37,0001.17,0000.79
2024-04-26 04:29:00,SystemResetWarning,0818.3,5.00,000.00,025.9,025.2,000.0,034.3,027.7,016.1,0000.0,0002.70,0001.27,0000.81
2024-04-26 04:30:00,SystemResetWarning,0818.3,5.00,000.00,025.9,025.2,000.0,034.3,027.8,016.1,0000.0,0002.94,0001.37,0000.84
2024-04-26 04:31:00,SystemResetWarning,0818.3,5.00,000.00,025.9,025.2,000.0,034.3,027.8,016.1,0000.0,0003.13,0001.46,0000.87
2024-04-26 04:32:00,SystemResetWarning,0818.4,5.01,000.00,025.9,025.2,000.0,034.3,027.8,016.2,0000.0,0003.42,0001.55,0000.91
2024-04-26 04:33:00,SystemResetWarning,0818.4,5.00,000.00,025.9,025.3,000.0,034.4,027.8,016.4,0000.0,0003.53,0001.59,0000.93
2024-04-26 04:34:00,SystemResetWarning,0818.4,5.00,000.00,025.9,025.3,000.0,034.4,027.8,016.3,0000.0,0003.33,0001.65,0000.94
2024-04-26 04:35:00,SystemResetWarning,0818.4,5.00,000.00,026.0,025.3,000.0,034.4,027.8,016.2,0000.0,0003.45,0001.70,0000.96
2024-04-26 04:36:00,SystemResetWarning,0818.4,5.00,000.00,026.0,025.3,000.0,034.4,027.8,016.3,0000.0,0003.40,0001.71,0000.96
2024-04-26 04:37:00,SystemResetWarning,0818.4,5.00,000.00,026.0,025.3,000.0,034.4,027.8,016.2,0000.0,0003.43,0001.72,0000.98
2024-04-26 04:38:00,SystemResetWarning,0818.4,5.00,000.00,026.0,025.3,000.0,034.4,027.8,016.2,0000.0,0003.52,0001.74,0001.01
2024-04-26 04:39:00,SystemResetWarning,0818.3,5.00,000.00,026.0,025.3,000.0,034.4,027.8,016.2,0000.0,0003.43,0001.72,0001.02
2024-04-26 04:40:00,SystemResetWarning,0818.3,5.00,000.00,026.0,025.3,000.0,034.4,027.8,016.7,0000.0,0003.14,0001.66,0001.03
2024-04-26 04:41:00,SystemResetWarning,0818.3,5.00,000.00,026.0,025.2,000.0,034.4,027.8,018.1,0000.0,0002.99,0001.61,0001.02
2024-04-26 04:42:00,SystemResetWarning,0818.3,5.00,000.00,026.0,025.2,000.0,034.4,027.8,018.5,0000.0,0002.79,0001.54,0000.99
2024-04-26 04:43:00,SystemResetWarning,0818.4,5.01,000.00,026.0,025.2,000.0,034.4,027.8,017.5,0000.0,0002.55,0001.44,0000.96
2024-04-26 04:44:00,SystemResetWarning,0818.4,5.01,000.00,026.0,025.2,000.0,034.4,027.8,017.7,0000.0,0002.64,0001.43,0000.97
2024-04-26 04:45:00,SystemResetWarning,0818.4,5.00,000.00,026.0,025.2,000.0,034.4,027.8,018.3,0000.0,0003.13,0001.45,0000.98
2024-04-26 04:46:00,SystemResetWarning,0818.4,5.00,000.00,026.0,025.2,000.0,034.4,027.8,017.4,0000.0,0003.70,0001.43,0000.96
2024-04-26 04:47:00,SystemResetWarning,0818.4,5.00,000.00,026.0,025.2,000.0,034.4,027.7,017.4,0000.0,0003.78,0001.44,0000.96
2024-04-26 04:48:00,SystemResetWarning,0818.4,5.00,000.00,025.9,025.2,000.0,034.4,027.7,017.9,0000.0,0003.83,0001.44,0000.95
2024-04-26 04:49:00,SystemResetWarning,0818.4,5.00,000.00,025.9,025.1,000.0,034.4,027.7,017.9,0000.0,0003.70,0001.41,0000.93
2024-04-26 04:50:00,SystemResetWarning,0818.3,5.00,000.00,025.9,025.1,000.0,034.4,027.7,017.6,0000.0,0003.72,0001.41,0000.92
2024-04-26 04:51:00,SystemResetWarning,0818.3,5.00,000.00,025.9,025.1,000.0,034.4,027.8,017.6,0000.0,0003.73,0001.40,0000.91
2024-04-26 04:52:00,SystemResetWarning,0818.3,5.00,000.00,025.9,025.1,000.0,034.4,027.8,017.8,0000.0,0003.64,0001.35,0000.89
2024-04-26 04:53:00,SystemResetWarning,0818.4,5.00,000.00,025.9,025.1,000.0,034.4,027.8,017.5,0000.0,0003.90,0001.35,0000.90
2024-04-26 04:54:00,SystemResetWarning,0818.3,5.00,000.00,025.9,025.1,000.0,034.4,027.7,017.1,0000.0,0004.52,0001.38,0000.91
2024-04-26 04:55:00,SystemResetWarning,0818.3,5.00,000.00,025.9,025.1,000.0,034.4,027.8,017.1,0000.0,0004.55,0001.37,0000.90
2024-04-26 04:56:00,SystemResetWarning,0818.3,5.00,000.00,025.9,025.1,000.0,034.4,027.7,017.9,0000.0,0004.28,0001.34,0000.89
2024-04-26 04:57:00,SystemResetWarning,0818.3,5.01,000.00,025.9,025.1,000.0,034.4,027.7,018.7,0000.0,0003.20,0001.29,0000.88
2024-04-26 04:58:00,SystemResetWarning,0818.3,5.00,000.00,025.9,025.1,000.0,034.4,027.7,019.0,0000.0,0003.11,0001.25,0000.87
2024-04-26 04:59:00,SystemResetWarning,0818.4,5.00,000.00,025.9,025.1,000.0,034.4,027.7,019.1,0000.0,0003.26,0001.23,0000.86
